Wind_Speed
34 36 38 40 40 41 40 39 38 37 38 37 36 36 35 30 31 31 30 29 27 24 19 18 16 15 13 13 14 14 15 14 10 10 12 15 16 18 20 22 19 16 7 6 1 4 3
35 36 38 40 41 42 42 42 40 39 38 39 39 39 38 37 32 32 33 33 32 27 21 20 18 18 18 17 16 14 18 17 14 12 12 14 20 19 22 22 21 19 13 10 8 6 6
35 37 38 39 41 42 43 43 42 40 40 40 40 41 41 39 37 36 33 34 33 31 26 22 21 20 21 17 17 17 16 17 19 16 14 15 18 18 20 22 15 21 17 14 5 10 11
34 38 40 40 41 42 43 44 44 42 41 41 40 41 42 42 41 37 35 35 37 34 30 25 23 23 23 17 22 21 19 20 18 19 16 16 18 18 16 25 23 26 18 19 13 10 12
26 32 39 42 43 44 44 45 45 44 43 42 41 40 42 42 41 41 38 37 39 36 34 33 24 24 24 21 20 20 23 20 20 20 17 16 15 20 18 28 29 31 19 13 10 13 15
28 30 32 38 44 46 46 46 46 46 45 44 43 42 41 43 44 40 38 39 41 39 39 36 29 25 24 21 20 19 22 20 21 19 20 19 12 17 23 24 30 28 20 7 11 5 1
26 28 31 33 36 44 48 48 48 47 47 46 45 44 43 42 42 45 43 38 41 41 40 36 31 25 24 22 20 21 20 22 21 20 22 18 15 15 22 21 29 25 18 15 9 13 12
27 28 27 30 33 35 41 48 49 49 49 48 46 45 44 43 43 43 47 46 47 44 40 38 35 28 25 24 19 23 21 19 23 22 23 18 13 19 18 18 26 25 17 16 16 13 16
25 27 30 30 30 33 34 39 47 51 50 50 48 47 45 45 43 43 45 45 47 47 45 38 36 31 26 28 23 19 21 20 23 23 22 18 22 22 19 21 29 23 22 18 16 18 15
25 27 28 31 31 32 34 35 37 45 51 50 50 48 46 46 44 43 43 41 43 43 45 37 35 33 27 31 27 20 21 21 20 21 24 19 21 21 24 24 30 29 26 21 20 20 20
28 27 28 27 31 32 33 34 35 35 40 50 50 48 46 46 45 44 41 40 38 39 41 30 29 30 28 31 20 30 28 27 19 18 25 18 21 24 24 22 28 31 32 30 19 26 25
28 28 29 28 28 32 32 34 35 35 34 39 49 48 45 45 45 44 41 39 39 39 39 26 24 23 28 26 23 28 31 30 26 24 22 20 25 26 25 25 27 29 31 29 25 24 23
26 28 29 26 26 26 30 34 34 32 32 34 40 48 44 42 45 44 41 41 41 41 33 29 27 23 25 25 23 25 26 24 26 30 21 21 21 23 23 26 27 27 17 15 28 29 24
25 28 28 25 23 22 25 30 34 36 34 33 35 40 41 40 43 43 41 42 43 40 34 29 29 27 25 25 25 27 28 27 22 23 28 28 20 21 25 24 23 16 16 16 20 27 20
31 28 28 26 22 18 16 26 30 32 33 35 34 37 34 39 41 41 40 43 43 40 35 33 24 31 29 29 25 28 29 23 20 20 23 26 26 21 25 25 21 20 16 16 18 17 20
23 30 29 28 25 21 20 19 31 29 28 30 32 34 35 34 39 40 40 42 43 38 36 31 33 32 32 25 26 27 26 23 22 21 21 23 24 24 23 28 24 24 16 16 16 19 21
32 31 29 29 29 25 20 21 27 29 26 27 28 31 31 32 36 39 40 41 39 32 34 32 37 37 33 29 28 26 23 28 29 29 26 26 22 25 24 26 24 19 17 8 13 23 22
30 29 28 32 28 28 21 18 19 29 25 25 25 26 28 29 33 36 38 39 36 31 34 37 41 43 38 36 31 30 26 28 28 29 28 21 25 28 31 27 20 24 23 22 19 14 22
26 30 29 30 29 28 22 15 16 31 27 28 24 23 26 26 30 34 37 37 36 35 37 37 43 46 48 43 39 34 30 27 27 27 28 27 28 29 33 32 25 24 29 28 21 20 20
30 33 32 29 28 27 25 16 11 12 33 34 28 26 26 25 29 27 30 32 31 32 38 39 44 50 50 49 45 41 36 33 31 30 27 28 30 27 32 30 30 26 26 30 27 23 25
33 29 28 30 30 28 28 22 14 13 13 21 23 26 24 25 27 26 25 25 25 28 32 38 47 49 49 52 47 48 42 39 36 33 29 31 33 30 29 33 35 33 28 28 27 29 26
26 26 27 27 26 30 31 28 23 18 14 15 12 18 20 26 28 26 24 25 23 24 28 35 41 48 48 49 53 47 51 47 42 35 33 33 36 36 33 33 35 38 37 32 34 31 31
18 25 23 29 26 31 30 30 27 24 20 17 16 14 16 26 27 32 27 25 27 28 30 35 39 44 46 47 50 56 51 50 48 42 40 37 38 37 34 35 36 34 37 34 33 36 37
21 23 25 24 28 31 31 29 28 27 24 20 21 20 17 21 20 23 26 24 25 29 31 34 37 39 43 40 40 44 51 51 53 55 48 37 34 40 38 36 41 39 37 33 35 37 38
19 18 21 22 29 33 32 30 27 26 25 26 23 22 23 22 18 23 22 28 26 28 29 39 38 37 36 34 33 33 32 42 55 56 54 56 47 44 46 45 45 47 46 41 41 38 40
19 24 22 24 25 34 33 31 27 26 27 27 26 24 25 26 24 23 22 22 21 26 28 25 19 24 29 24 25 32 31 31 37 48 57 59 57 58 53 53 53 51 49 50 50 45 42
19 24 21 27 24 31 37 33 28 25 27 28 27 25 25 26 24 24 23 21 20 23 23 21 27 32 33 33 25 24 25 31 33 37 41 48 48 49 52 56 56 54 52 54 48 42 38
18 22 21 23 25 27 39 34 29 26 26 28 26 24 24 25 25 25 24 22 23 23 22 25 28 28 28 28 29 30 29 29 34 35 36 39 42 45 44 49 54 50 47 46 42 39 38
17 18 24 23 28 31 39 37 31 27 26 26 26 25 25 24 21 25 23 22 23 24 25 26 27 27 25 26 26 27 30 31 30 30 35 39 42 41 40 45 46 45 45 45 44 37 36
Wind_Direction
232 230 231 233 235 235 237 238 236 231 227 224 220 218 215 220 227 234 241 247 251 249 246 248 243 239 228 232 237 229 241 255 266 266 266 258 254 233 223 221 210 224 252 233 177 163 3
234 233 232 232 234 237 236 237 238 237 234 231 224 221 220 220 226 233 241 246 250 249 242 248 241 238 236 225 246 239 240 247 256 263 253 250 244 246 241 232 229 228 226 234 251 291 302
236 235 236 233 233 235 238 239 239 238 238 236 234 226 223 223 227 231 238 247 250 250 249 244 247 243 236 219 242 243 243 248 247 257 258 250 250 249 246 238 232 256 262 267 261 280 306
240 238 236 236 236 235 236 239 239 240 239 238 237 235 228 226 228 231 235 242 250 252 255 249 249 248 243 226 235 242 236 244 252 252 258 246 242 237 236 233 235 251 267 283 273 272 284
244 243 239 235 235 237 236 236 238 239 240 240 239 237 235 229 230 230 235 241 247 251 256 258 249 250 250 239 236 241 243 243 244 249 256 260 256 242 226 222 234 247 264 288 239 257 310
255 249 243 241 237 235 236 237 236 236 237 239 239 239 238 235 233 231 235 238 244 250 253 256 252 249 245 236 232 234 249 239 242 247 255 256 252 248 245 228 228 237 250 234 225 204 71
262 256 251 244 240 238 236 236 237 237 237 237 237 239 239 238 237 234 234 232 239 243 248 252 253 251 243 233 229 230 234 246 243 241 247 251 257 251 246 238 221 231 240 221 216 158 152
266 260 255 251 245 240 239 237 236 236 237 237 237 237 239 239 238 237 236 238 242 246 250 255 257 249 246 228 224 234 229 242 236 237 243 246 246 230 234 228 212 220 221 217 225 185 179
273 268 258 253 253 247 240 239 237 236 235 236 237 236 237 238 238 238 239 240 245 249 252 249 255 250 235 238 214 234 230 230 238 236 239 233 232 232 227 219 199 208 224 219 219 217 214
273 270 265 258 252 250 247 241 239 237 235 235 235 237 237 238 237 237 239 242 246 250 252 248 249 252 236 239 217 222 235 229 226 230 234 224 234 226 222 215 207 211 226 224 209 217 225
271 270 267 263 258 252 249 246 241 239 239 235 236 236 237 238 237 238 237 240 242 246 250 252 248 244 240 237 221 222 235 226 227 234 237 218 227 228 233 226 221 219 223 233 227 231 242
274 271 272 266 265 257 250 244 242 242 242 237 234 235 237 237 237 236 236 236 237 240 245 245 243 238 237 233 239 231 234 233 228 236 236 226 228 228 231 237 234 230 228 240 243 247 251
275 269 271 269 271 262 250 242 239 238 240 239 236 234 234 235 235 233 233 233 235 237 235 232 233 230 227 226 229 231 239 236 233 236 240 231 231 238 237 244 240 242 240 264 246 248 253
275 268 268 266 273 271 249 243 240 238 237 244 239 233 234 234 232 231 231 231 232 233 230 227 227 222 222 209 213 216 229 236 235 238 234 236 228 230 238 244 244 235 243 238 249 247 253
274 268 261 259 263 271 271 249 241 238 238 239 239 232 232 233 230 230 229 231 230 231 227 225 220 221 221 220 216 216 219 228 231 236 240 233 231 232 228 237 231 223 236 242 245 242 245
276 266 257 255 252 254 268 288 241 234 235 238 234 233 233 232 229 227 227 229 230 229 228 216 215 214 221 220 212 215 213 204 200 212 223 226 222 230 222 224 218 236 234 234 233 242 239
266 259 260 249 249 254 265 286 238 229 232 234 231 231 228 229 228 225 225 228 230 224 226 213 213 212 213 209 208 197 194 200 205 214 214 211 217 212 219 215 214 226 221 224 242 241 247
261 253 258 246 245 247 257 276 257 224 227 226 227 228 224 220 225 223 224 225 225 216 217 210 213 212 209 213 214 207 219 215 216 220 215 210 219 202 202 205 218 220 218 229 230 241 251
262 257 259 255 237 240 245 258 283 223 223 226 219 222 220 219 221 219 221 223 221 217 215 211 210 216 209 212 218 212 213 222 234 233 225 221 220 214 206 209 216 227 226 234 234 247 248
265 254 261 251 230 235 236 235 250 233 221 220 210 215 219 213 218 220 220 222 220 215 215 215 214 218 214 212 217 218 213 220 228 236 236 231 232 234 219 217 223 230 232 241 247 247 249
273 250 255 244 239 227 230 222 217 226 228 199 215 220 219 219 219 219 216 217 213 209 209 214 216 221 220 217 215 219 216 218 231 231 229 237 242 241 233 226 224 227 234 242 250 246 252
268 249 249 242 250 220 224 220 218 225 227 219 205 221 204 217 219 225 224 218 218 212 209 219 222 227 227 223 218 219 219 219 226 232 232 231 238 244 239 241 235 235 228 233 247 252 250
254 246 255 236 244 217 221 220 219 225 218 225 219 223 225 220 219 216 220 227 223 224 219 219 228 232 237 234 226 223 223 223 225 233 238 233 233 244 239 244 247 251 248 245 245 251 259
269 252 241 234 225 217 219 217 214 219 224 218 219 209 214 216 213 214 217 223 225 229 230 228 228 234 242 244 248 239 234 231 230 234 232 231 238 241 238 238 243 251 255 260 260 255 250
260 252 235 247 218 213 217 216 213 216 218 222 219 217 216 210 212 212 219 215 216 227 240 231 233 237 241 245 245 249 247 234 230 228 237 241 238 252 247 240 242 248 254 256 264 264 265
269 246 238 233 220 210 215 218 214 211 215 218 220 218 218 219 211 222 219 225 226 228 230 234 242 244 241 250 247 246 245 234 224 231 236 243 250 251 248 250 248 246 249 256 262 260 259
268 243 244 230 228 221 210 217 216 207 212 216 216 218 223 224 221 225 221 231 226 219 224 238 251 249 248 246 233 232 238 239 236 231 228 232 236 240 243 245 251 256 260 262 262 258 257
274 238 238 236 224 219 205 213 212 203 210 217 215 214 220 222 221 228 228 225 223 223 219 223 233 239 240 248 245 239 233 233 236 236 233 233 237 239 242 248 251 254 259 261 261 263 256
281 255 248 245 221 216 207 208 210 203 208 212 214 213 217 220 216 223 222 220 223 226 232 237 246 248 246 245 238 237 231 229 233 240 234 233 233 239 242 245 249 252 254 257 258 260 259
Height
5868 5871 5872 5875 5877 5880 5882 5885 5888 5891 5894 5896 5899 5903 5906 5910 5912 5913 5915 5917 5918 5919 5921 5922 5923 5925 5926 5926 5926 5927 5927 5927 5928 5930 5931 5932 5933 5933 5933 5933 5935 5936 5937 5935 5934 5934 5933
5863 5865 5867 5869 5871 5874 5876 5879 5882 5885 5888 5891 5894 5897 5901 5904 5907 5908 5910 5912 5913 5915 5917 5919 5920 5922 5923 5925 5924 5925 5926 5926 5926 5927 5929 5930 5929 5930 5931 5933 5934 5935 5938 5935 5934 5933 5932
5855 5858 5861 5862 5864 5867 5870 5873 5875 5878 5881 5884 5888 5891 5894 5898 5901 5904 5905 5906 5908 5910 5912 5914 5916 5917 5919 5923 5922 5923 5923 5924 5923 5923 5925 5927 5926 5929 5930 5931 5932 5931 5934 5934 5933 5932 5931
5848 5850 5852 5855 5857 5860 5862 5865 5868 5871 5875 5877 5881 5885 5888 5891 5895 5898 5900 5901 5902 5906 5907 5909 5911 5912 5914 5918 5917 5919 5920 5920 5921 5921 5922 5923 5923 5925 5929 5930 5931 5930 5933 5934 5933 5930 5929
5841 5842 5844 5846 5849 5852 5855 5857 5860 5863 5868 5871 5874 5878 5882 5884 5888 5892 5895 5896 5898 5901 5902 5903 5907 5908 5910 5913 5915 5916 5916 5917 5918 5918 5918 5919 5921 5923 5925 5926 5929 5929 5932 5933 5934 5931 5930
5835 5835 5836 5838 5840 5843 5846 5849 5852 5855 5858 5863 5867 5871 5874 5878 5882 5886 5888 5891 5892 5895 5897 5899 5901 5905 5907 5909 5910 5913 5913 5913 5915 5916 5916 5915 5919 5921 5921 5922 5926 5928 5930 5932 5932 5930 5930
5829 5828 5828 5829 5831 5834 5836 5840 5843 5846 5849 5854 5858 5862 5867 5870 5875 5879 5881 5884 5886 5888 5891 5894 5897 5899 5901 5903 5905 5907 5909 5911 5912 5913 5913 5913 5916 5918 5917 5921 5922 5924 5925 5928 5928 5927 5927
5823 5822 5822 5822 5822 5824 5827 5831 5833 5837 5841 5845 5849 5854 5858 5862 5866 5870 5872 5876 5879 5883 5888 5890 5891 5895 5896 5898 5902 5902 5904 5907 5908 5909 5909 5913 5914 5912 5913 5916 5918 5920 5922 5926 5927 5926 5925
5816 5815 5815 5815 5815 5816 5817 5820 5824 5828 5831 5836 5840 5844 5849 5853 5858 5862 5864 5870 5872 5876 5879 5885 5885 5889 5893 5892 5897 5899 5900 5901 5904 5905 5907 5909 5908 5908 5911 5912 5914 5916 5917 5922 5924 5924 5923
5810 5809 5808 5808 5808 5808 5810 5811 5814 5818 5822 5826 5831 5836 5840 5844 5851 5853 5858 5863 5867 5870 5869 5877 5880 5882 5887 5886 5890 5894 5894 5897 5899 5901 5901 5905 5904 5906 5906 5909 5912 5913 5915 5917 5919 5919 5920
5803 5801 5801 5800 5800 5800 5801 5803 5806 5808 5812 5816 5821 5826 5831 5836 5841 5846 5853 5857 5860 5862 5862 5874 5874 5876 5880 5881 5890 5888 5889 5891 5895 5896 5897 5904 5901 5902 5904 5908 5908 5911 5911 5912 5914 5916 5916
5796 5795 5793 5793 5792 5792 5793 5795 5797 5800 5804 5807 5811 5816 5821 5826 5832 5839 5844 5848 5852 5855 5858 5865 5868 5870 5873 5878 5881 5882 5884 5887 5890 5890 5894 5897 5897 5897 5902 5904 5905 5907 5908 5909 5909 5910 5911
5788 5788 5786 5786 5784 5783 5784 5787 5790 5792 5795 5799 5802 5808 5813 5818 5823 5830 5835 5839 5843 5846 5856 5859 5861 5865 5867 5871 5874 5876 5877 5881 5884 5887 5891 5892 5894 5896 5898 5900 5901 5902 5905 5906 5906 5906 5907
5780 5781 5780 5779 5778 5777 5776 5778 5781 5784 5787 5791 5794 5799 5804 5808 5815 5821 5826 5830 5835 5841 5848 5852 5857 5860 5863 5865 5868 5870 5872 5875 5879 5882 5885 5887 5891 5893 5894 5896 5898 5899 5900 5900 5900 5902 5905
5772 5772 5773 5774 5773 5772 5771 5772 5773 5776 5779 5782 5787 5791 5795 5800 5808 5813 5817 5821 5828 5834 5842 5846 5851 5853 5857 5859 5862 5864 5866 5871 5876 5878 5880 5882 5888 5887 5889 5893 5895 5897 5897 5898 5896 5898 5899
5763 5764 5764 5766 5767 5767 5766 5765 5765 5768 5772 5775 5779 5783 5788 5795 5798 5804 5808 5815 5819 5828 5834 5840 5843 5846 5851 5853 5857 5859 5861 5866 5869 5869 5872 5876 5881 5882 5885 5886 5890 5891 5894 5893 5893 5894 5895
5753 5753 5755 5757 5759 5761 5760 5758 5757 5761 5764 5769 5772 5777 5781 5785 5790 5795 5801 5806 5814 5822 5825 5833 5836 5840 5845 5849 5852 5855 5857 5859 5861 5863 5866 5868 5872 5878 5881 5882 5887 5888 5890 5890 5890 5891 5891
5744 5745 5746 5748 5751 5754 5754 5753 5752 5756 5759 5763 5766 5770 5774 5777 5784 5789 5794 5799 5805 5812 5816 5822 5828 5833 5838 5842 5847 5850 5852 5854 5857 5861 5862 5865 5867 5871 5875 5879 5881 5883 5884 5884 5884 5886 5888
5735 5736 5738 5740 5742 5746 5749 5749 5748 5749 5753 5757 5761 5765 5769 5771 5777 5781 5786 5791 5797 5804 5808 5814 5819 5823 5830 5835 5841 5845 5847 5850 5852 5855 5859 5859 5861 5865 5869 5874 5875 5877 5878 5880 5881 5882 5883
5723 5727 5729 5732 5734 5738 5743 5744 5745 5744 5747 5750 5755 5759 5763 5767 5770 5775 5780 5786 5792 5797 5802 5808 5813 5815 5822 5827 5833 5839 5843 5845 5847 5850 5854 5857 5857 5861 5866 5869 5871 5873 5875 5876 5877 5879 5879
5714 5718 5720 5723 5727 5730 5736 5739 5742 5743 5744 5746 5750 5755 5760 5764 5767 5771 5777 5782 5786 5791 5796 5801 5804 5808 5814 5820 5826 5831 5838 5840 5841 5845 5848 5851 5853 5856 5860 5862 5863 5867 5870 5872 5873 5874 5875
5705 5708 5712 5715 5718 5723 5728 5732 5736 5740 5742 5745 5747 5751 5755 5756 5762 5767 5773 5777 5783 5787 5792 5795 5799 5801 5806 5813 5819 5823 5829 5835 5836 5839 5842 5845 5848 5851 5855 5858 5859 5861 5866 5867 5867 5869 5870
5699 5701 5704 5707 5711 5716 5722 5726 5731 5735 5740 5742 5745 5748 5749 5752 5758 5763 5769 5773 5778 5783 5787 5790 5792 5795 5799 5805 5811 5816 5822 5829 5831 5834 5836 5838 5841 5845 5850 5853 5853 5857 5858 5861 5863 5864 5864
5693 5695 5698 5700 5705 5711 5716 5721 5725 5729 5735 5739 5742 5745 5748 5750 5753 5757 5763 5768 5773 5777 5781 5784 5786 5790 5793 5798 5803 5808 5813 5819 5823 5825 5828 5830 5834 5837 5841 5846 5847 5849 5851 5852 5854 5857 5857
5689 5690 5692 5695 5699 5705 5711 5715 5720 5724 5729 5734 5738 5742 5744 5746 5751 5754 5758 5762 5767 5770 5773 5776 5780 5784 5788 5792 5796 5798 5802 5807 5810 5815 5819 5822 5825 5829 5832 5836 5838 5841 5843 5844 5844 5847 5848
5684 5685 5687 5690 5693 5700 5705 5710 5714 5719 5724 5728 5733 5737 5740 5744 5749 5751 5756 5759 5763 5766 5769 5772 5777 5779 5782 5784 5788 5791 5794 5797 5800 5804 5810 5813 5815 5820 5821 5823 5826 5829 5833 5834 5832 5835 5836
5678 5680 5682 5685 5689 5694 5699 5704 5709 5714 5719 5723 5728 5732 5736 5740 5745 5747 5752 5755 5758 5762 5765 5766 5768 5770 5772 5775 5780 5783 5786 5789 5792 5794 5800 5803 5804 5806 5808 5811 5815 5818 5822 5821 5822 5826 5825
5673 5675 5678 5680 5683 5688 5693 5699 5704 5708 5713 5718 5724 5728 5732 5735 5739 5741 5745 5749 5752 5755 5758 5760 5761 5762 5766 5768 5771 5774 5778 5781 5784 5787 5791 5793 5795 5796 5800 5804 5806 5810 5812 5813 5813 5813 5816
5670 5671 5673 5675 5678 5682 5687 5694 5699 5703 5709 5715 5721 5724 5727 5731 5736 5738 5740 5743 5746 5750 5753 5754 5755 5756 5760 5761 5764 5766 5770 5773 5776 5779 5783 5785 5787 5791 5796 5797 5797 5800 5800 5800 5802 5806 5806